Flag for Germany Weather past 2 weeks in Euskirchen, North Rhine-Westphalia, Germany

Now
63 °F

Scattered clouds.


Feels Like: 63 °F
Forecast: 53 / 68 °F
Wind: 1 mph from Southeast

Location: Noervenich

Current Time: May 3, 2015 at 9:02:57 PM

Latest Report: May 3, 2015 at 8:20 PM


Visibility: N/A

Pressure: 29.59 "Hg

Humidity: 88%

Dew point: 59 °F

Location of EuskirchenLocation

Historic Weather in Euskirchen — Graph

°F

Euskirchen temperature yesterday

Maximum temperature yesterday: 59 °F (at 3:20 PM)
Minimum temperature yesterday: 39 °F (at 4:20 AM)
Average temperature yesterday: 50 °F

Past Weeks' High & Low Weather Summary

 TemperatureHumidityPressure
High72 °F (Apr 24, 4:20 PM)100% (Apr 23, 6:01 AM)30.45 "Hg (Apr 23, 6:01 AM)
Low34 °F (Apr 19, 6:20 AM)27% (Apr 24, 3:20 PM)29.59 "Hg (May 3, 4:20 PM)
Average51 °F70%29.99 "Hg
* Reported Apr 18 7:20 PM — May 3 7:20 PM, Euskirchen, Weather by CustomWeather, © 2015

Note: Actual official high and low records may vary slightly from our data, if they occured in-between our weather recording intervals... More about our weather records

Advertising

Euskirchen weather history for previous 24 hours

 ConditionsComfort  
Time TempWeatherWind HumidityBarometerVisibility
7:20 PM
Sun, May 3
61 °FLight rain. Partly sunny.2 mph94%29.59 "HgN/A
6:20 PM61 °FLight rain. Partly sunny.1 mph94%29.59 "HgN/A
5:20 PM59 °FRain. Partly sunny.1 mph94%29.59 "HgN/A
4:20 PM59 °FRain. Partly sunny.2 mph94%29.59 "HgN/A
3:20 PM61 °FRain. Partly sunny.2 mph88%29.62 "HgN/A
2:20 PM63 °FPartly sunny.2 mph73%29.62 "HgN/A
1:20 PM63 °FLight rain. Partly sunny.2 mph73%29.62 "HgN/A
12:20 PM63 °FPartly sunny.5 mph73%29.62 "HgN/A
11:20 AM61 °FCool.6 mph72%29.62 "HgN/A
10:20 AM55 °FCool.5 mph88%29.65 "Hg3 mi
9:20 AM55 °FCool.3 mph82%29.65 "HgN/A
8:20 AM54 °FCool.3 mph82%29.65 "Hg6 mi
7:20 AM52 °FCool.2 mph82%29.68 "Hg6 mi
6:20 AM50 °FCool.2 mph88%29.68 "Hg6 mi
5:20 AM50 °FCool.2 mph82%29.68 "Hg4 mi
4:20 AM48 °FCool.1 mph87%29.71 "Hg5 mi
3:20 AM50 °FCool.1 mph82%29.71 "Hg4 mi
2:20 AM50 °FCool.1 mph82%29.74 "Hg5 mi
1:20 AM50 °FCool.1 mph82%29.74 "Hg4 mi
12:20 AM52 °FCool.2 mph72%29.77 "Hg5 mi
11:20 PM
Sat, May 2
54 °FCool.1 mph67%29.80 "Hg5 mi
10:20 PM52 °FCool.2 mph72%29.80 "Hg4 mi
9:20 PM55 °FRefreshingly cool.3 mph55%29.80 "HgN/A
Weather by CustomWeather, © 2015

See weather overviewHow to use our weather pages